M0SWV Weather Reports


Display with metric or nautical units.
time (UTC)temp
F
wind
direction
speed
MPH
gust
MPH
rain 1hr
in
rain 24hr
in
rain mn
in
humidity
%
barometer
mb
20260510201529 49 326 1.0 4.0 0.00 0.00 0.00 64 1016.6
20260510200030 49 5 2.0 5.0 0.00 0.00 0.00 63 1016.7
20260510194530 50 57 3.0 10.0 0.00 0.00 0.00 61 1016.6
20260510193030 50 11 2.0 7.0 0.00 0.00 0.00 61 1016.6
20260510191536 51 346 3.0 7.0 0.00 0.00 0.00 59 1016.5
20260510190040 52 109 2.0 11.0 0.00 0.00 0.00 57 1016.7
20260510184537 54 88 3.0 13.0 0.00 0.00 0.00 54 1016.8
20260510183032 53 105 4.0 10.0 0.00 0.00 0.00 56 1016.9
20260510181559 54 24 4.0 13.0 0.00 0.00 0.00 56 1016.8
20260510180038 54 26 6.0 11.0 0.00 0.00 0.00 52 1016.7
20260510174559 53 9 3.0 9.0 0.00 0.00 0.00 55 1016.8
20260510173032 55 113 2.0 13.0 0.00 0.00 0.00 52 1016.9
20260510171530 56 74 4.0 12.0 0.00 0.00 0.00 51 1016.7
20260510170031 56 19 5.0 12.0 0.00 0.00 0.00 53 1017.1
20260510164537 56 96 3.0 10.0 0.00 0.00 0.00 55 1017.2
20260510163033 55 65 3.0 9.0 0.00 0.00 0.00 58 1017.4
20260510161535 54 321 2.0 11.0 0.00 0.00 0.00 58 1017.5
20260510160035 54 51 3.0 13.0 0.00 0.00 0.00 59 1017.8
20260510154532 55 29 3.0 7.0 0.00 0.00 0.00 59 1017.9
20260510153035 55 153 3.0 13.0 0.00 0.00 0.00 60 1018.0
20260510151530 55 23 2.0 13.0 0.00 0.00 0.00 61 1018.1
20260510150032 55 154 3.0 11.0 0.00 0.00 0.00 63 1018.2
20260510144535 54 338 4.0 12.0 0.00 0.00 0.00 62 1018.4
20260510143031 55 74 3.0 10.0 0.00 0.00 0.00 63 1018.5
20260510141537 54 114 4.0 11.0 0.00 0.00 0.00 65 1018.7
20260510140032 54 120 3.0 9.0 0.00 0.00 0.00 65 1018.7
20260510134530 53 89 2.0 11.0 0.00 0.00 0.00 66 1018.9
20260510133031 55 85 4.0 11.0 0.00 0.00 0.00 64 1018.9
20260510131533 54 55 5.0 14.0 0.00 0.00 0.00 66 1019.2
20260510130034 53 72 5.0 14.0 0.00 0.00 0.00 66 1019.3
20260510124538 53 309 3.0 13.0 0.00 0.00 0.00 69 1019.5
20260510123033 53 90 3.0 12.0 0.00 0.00 0.00 72 1019.7
20260510121529 52 219 3.0 9.0 0.00 0.00 0.00 72 1020.0
20260510120033 50 143 7.0 14.0 0.00 0.00 0.00 73 1020.1
20260510114538 50 320 2.0 11.0 0.00 0.00 0.00 76 1020.2
20260510113033 50 93 4.0 11.0 0.00 0.00 0.00 76 1020.3
20260510111533 49 345 4.0 11.0 0.00 0.00 0.00 79 1020.4
20260510110035 48 64 2.0 12.0 0.00 0.00 0.00 79 1020.6
20260510104534 48 336 5.0 12.0 0.00 0.00 0.00 79 1020.6
20260510103029 48 41 3.0 14.0 0.00 0.00 0.00 81 1020.7
20260510101528 47 102 2.0 11.0 0.00 0.00 0.00 82 1020.8
20260510100035 47 126 4.0 11.0 0.00 0.00 0.00 82 1020.8
20260510094532 47 90 3.0 9.0 0.00 0.00 0.00 83 1020.9
20260510093040 47 336 3.0 12.0 0.00 0.00 0.00 83 1020.9
20260510091532 47 113 3.0 11.0 0.00 0.00 0.00 84 1021.1
20260510090034 47 274 2.0 14.0 0.00 0.00 0.00 84 1021.2
20260510084535 46 107 1.0 9.0 0.00 0.00 0.00 87 1021.3
20260510083042 46 138 3.0 10.0 0.00 0.00 0.00 88 1021.4
20260510081529 45 46 2.0 10.0 0.00 0.00 0.00 88 1021.3
20260510080031 45 24 3.0 8.0 0.00 0.00 0.00 89 1021.4
20260510074534 45 12 2.0 10.0 0.00 0.00 0.00 89 1021.3
20260510073033 45 129 4.0 10.0 0.00 0.00 0.00 89 1021.4
20260510071543 45 59 3.0 12.0 0.00 0.00 0.00 90 1021.4
20260510070032 45 9 3.0 9.0 0.00 0.00 0.00 90 1021.2
20260510064528 45 88 2.0 11.0 0.00 0.00 0.00 90 1021.2
20260510063031 45 221 2.0 10.0 0.00 0.00 0.00 90 1021.1
20260510061540 45 108 3.0 11.0 0.00 0.00 0.00 91 1021.1
20260510060033 45 111 2.0 11.0 0.00 0.00 0.00 91 1020.9
20260510054530 45 217 3.0 11.0 0.00 0.00 0.00 91 1020.8
20260510053030 45 166 2.0 9.0 0.00 0.00 0.00 91 1020.7
20260510051530 46 25 1.0 7.0 0.00 0.00 0.00 92 1020.9
20260510050034 46 103 3.0 9.0 0.00 0.00 0.00 91 1021.1
20260510044530 46 289 2.0 15.0 0.00 0.00 0.00 91 1021.0
20260510043032 46 86 3.0 11.0 0.00 0.00 0.00 91 1021.1
20260510041528 46 36 3.0 8.0 0.00 0.00 0.00 91 1021.1
20260510040033 46 17 3.0 10.0 0.00 0.00 0.00 91 1021.3
20260510034538 46 32 2.0 9.0 0.00 0.00 0.00 91 1021.4
20260510033034 46 46 2.0 10.0 0.00 0.00 0.00 91 1021.4
20260510031542 46 288 3.0 9.0 0.00 0.00 0.00 91 1021.4
20260510030030 46 46 3.0 9.0 0.00 0.00 0.00 91 1021.5
20260510024540 47 198 6.0 13.0 0.00 0.00 0.00 91 1021.6
20260510023033 47 79 4.0 15.0 0.00 0.00 0.00 90 1021.5
20260510021530 47 33 3.0 11.0 0.00 0.00 0.00 90 1021.6
20260510020030 48 350 3.0 13.0 0.00 0.00 0.00 90 1021.7
20260510014533 48 78 3.0 14.0 0.00 0.00 0.00 89 1021.7
20260510013028 48 327 2.0 10.0 0.00 0.00 0.00 89 1021.6
20260510011538 48 318 4.0 10.0 0.00 0.00 0.00 89 1021.6
20260510010034 49 58 2.0 9.0 0.00 0.00 0.00 89 1021.6
20260510004531 49 100 1.0 8.0 0.00 0.00 0.00 88 1021.5
20260510003055 49 80 2.0 13.0 0.00 0.00 0.00 88 1021.1
20260510001531 49 313 4.0 14.0 0.00 0.00 0.00 88 1021.4
20260510000037 49 107 3.0 12.0 0.00 0.00 0.00 87 1021.3
20260509234530 50 113 2.0 10.0 0.00 0.00 0.00 87 1021.5
20260509233030 50 300 3.0 10.0 0.00 0.00 0.00 86 1021.5
20260509231540 50 55 5.0 14.0 0.00 0.00 0.00 86 1021.4
20260509230033 51 13 3.0 13.0 0.00 0.00 0.00 86 1021.5
20260509224534 51 14 6.0 13.0 0.00 0.00 0.00 86 1021.2
20260509223031 51 340 4.0 13.0 0.00 0.00 0.00 85 1021.1
20260509221531 52 16 4.0 13.0 0.00 0.00 0.00 85 1021.0
20260509220030 52 24 4.0 12.0 0.00 0.00 0.00 84 1020.9
20260509214531 53 23 4.0 11.0 0.00 0.00 0.00 84 1020.8
20260509213030 53 100 3.0 11.0 0.00 0.00 0.00 84 1020.5
20260509211530 53 340 2.0 14.0 0.00 0.00 0.00 84 1020.5
20260509210028 54 49 3.0 12.0 0.00 0.00 0.00 84 1020.4
20260509204532 54 69 6.0 12.0 0.00 0.00 0.00 85 1020.4
20260509203035 54 63 6.0 15.0 0.00 0.00 0.00 84 1020.2